Crane Lake, MN

2:19 AM CST on February 24, 2017 (GMT -0600)
Crane Lake

Weather History for KCDD - April, 2013

Change the Weather History Date:

Monday, April 8, 2013

  Actual Average Record
Temperature  
Mean Temperature 34 °F -  
Max Temperature 39 °F 43 °F 66 °F (2005)
Min Temperature 28 °F 24 °F 0 °F (2007)
Degree Days  
Heating Degree Days 32    
Moisture  
Dew Point 33 °F    
Average Humidity 99    
Maximum Humidity 100    
Minimum Humidity 93    
Precipitation  
Precipitation 0.00 in - - ()
Sea Level Pressure  
Sea Level Pressure 29.92 in    
Wind  
Wind Speed 1 mph (NNW)    
Max Wind Speed 7 mph    
Max Gust Speed -    
Visibility 7 miles    
Events Snow    
Averages and records for this station are not official NWS values.
T = Trace of Precipitation, MM = Missing Value Source: NWS Daily Summary

Daily Weather History Graph

Daily Weather History Graph

Search for Another Location

Airport or City:

Trip Planner

Search our weather history database for the weather conditions in past years. The results will help you decide how hot, cold, wet, or windy it might be!

Date:

Astronomy

Apr. 08, 2013 Rise Set
Actual Time 6:33 AM CDT 7:50 PM CDT
Civil Twilight 6:01 AM CDT 8:23 PM CDT
Nautical Twilight 5:22 AM CDT 9:02 PM CDT
Astronomical Twilight 4:40 AM CDT 9:44 PM CDT
Moon 5:30 AM CDT (4/8) 6:21 PM CDT (4/8)
Length of Visible Light 14h 22m
Length of Day
13h 17m
Waning Crescent, 3% of the Moon is Illuminated
Apr 8
Waning Crescent
Apr 10
New
Apr 18
First Quarter
Apr 25
Full
May 2
Last Quarter

Hourly Weather History & Observations

Time (CDT) Temp. Windchill Dew Point Humidity Pressure Visibility Wind Dir Wind Speed Gust Speed Precip Events Conditions
12:13 AM 30.2 °F - 28.4 °F 93% 29.86 in 1.5 mi Calm Calm - N/A Snow Light Snow
12:33 AM 30.2 °F - 30.2 °F 100% 29.86 in 2.0 mi Calm Calm - N/A Snow Light Snow
12:53 AM 30.2 °F - 30.2 °F 100% 29.86 in 1.2 mi Calm Calm - N/A Snow Light Snow
1:13 AM 30.2 °F - 30.2 °F 100% 29.86 in 1.0 mi Calm Calm - N/A   Overcast
1:33 AM 30.2 °F - 30.2 °F 100% 29.86 in 1.8 mi Calm Calm - N/A   Overcast
1:53 AM 30.2 °F - 30.2 °F 100% 29.86 in 1.2 mi Calm Calm - N/A   Overcast
2:13 AM 30.2 °F - 30.2 °F 100% 29.86 in 1.5 mi Calm Calm - N/A   Overcast
2:33 AM 30.2 °F - 30.2 °F 100% 29.86 in 1.5 mi Calm Calm - N/A Snow Light Snow
2:53 AM 30.2 °F - 30.2 °F 100% 29.85 in 2.0 mi Calm Calm - N/A Snow Light Snow
3:13 AM 30.2 °F - 30.2 °F 100% 29.85 in 1.2 mi Calm Calm - N/A Snow Light Snow
3:33 AM 30.2 °F - 30.2 °F 100% 29.84 in 1.2 mi Calm Calm - N/A Snow Light Snow
3:53 AM 30.2 °F - 30.2 °F 100% 29.84 in 1.2 mi Calm Calm - N/A Snow Light Snow
4:13 AM 30.2 °F - 30.2 °F 100% 29.84 in 1.5 mi Calm Calm - N/A Snow Light Snow
4:33 AM 30.2 °F - 30.2 °F 100% 29.84 in 1.8 mi Calm Calm - N/A Snow Light Snow
4:53 AM 30.2 °F - 30.2 °F 100% 29.85 in 2.0 mi Calm Calm - N/A   Overcast
5:13 AM 30.2 °F - 30.2 °F 100% 29.85 in 2.0 mi Calm Calm - N/A   Overcast
5:33 AM 30.2 °F - 30.2 °F 100% 29.85 in 2.0 mi Calm Calm - N/A   Overcast
5:53 AM 30.2 °F - 30.2 °F 100% 29.85 in 2.5 mi Calm Calm - N/A   Overcast
6:13 AM 30.2 °F - 30.2 °F 100% 29.85 in 3.0 mi Calm Calm - N/A   Overcast
6:33 AM 30.2 °F - 30.2 °F 100% 29.85 in 2.5 mi Calm Calm - N/A   Overcast
6:53 AM 30.2 °F - 30.2 °F 100% 29.86 in 4.0 mi Calm Calm - N/A   Overcast
7:13 AM 30.2 °F - 30.2 °F 100% 29.85 in 3.0 mi Calm Calm - N/A   Overcast
7:33 AM 30.2 °F - 30.2 °F 100% 29.85 in 4.0 mi Calm Calm - N/A   Overcast
7:53 AM 32.0 °F - 32.0 °F 100% 29.86 in 4.0 mi Calm Calm - N/A   Overcast
8:13 AM 32.0 °F - 32.0 °F 100% 29.86 in 4.0 mi Calm Calm - N/A   Overcast
8:33 AM 33.8 °F - 33.8 °F 100% 29.86 in 4.0 mi Calm Calm - N/A   Overcast
8:53 AM 33.8 °F - 33.8 °F 100% 29.87 in 5.0 mi Calm Calm - N/A   Overcast
9:13 AM 33.8 °F - 33.8 °F 100% 29.86 in 5.0 mi Calm Calm - N/A   Overcast
9:33 AM 33.8 °F 30.8 °F 33.8 °F 100% 29.86 in 7.0 mi North 3.5 mph - N/A   Overcast
9:53 AM 33.8 °F - 33.8 °F 100% 29.86 in 10.0 mi Calm Calm - N/A   Overcast
10:13 AM 33.8 °F - 33.8 °F 100% 29.87 in 10.0 mi Calm Calm - N/A   Overcast
10:33 AM 35.6 °F - 33.8 °F 93% 29.88 in 10.0 mi Calm Calm - N/A   Overcast
10:53 AM 35.6 °F - 35.6 °F 100% 29.89 in 10.0 mi Calm Calm - N/A   Overcast
11:13 AM 37.4 °F - 37.4 °F 100% 29.89 in 10.0 mi Calm Calm - N/A   Overcast
11:33 AM 37.4 °F - 37.4 °F 100% 29.90 in 10.0 mi Calm Calm - N/A   Overcast
11:53 AM 37.4 °F - 37.4 °F 100% 29.90 in 10.0 mi Calm Calm - N/A   Overcast
12:13 PM 37.4 °F - 37.4 °F 100% 29.90 in 10.0 mi Calm Calm - N/A   Overcast
12:33 PM 37.4 °F - 37.4 °F 100% 29.90 in 10.0 mi Calm Calm - N/A   Overcast
12:53 PM 37.4 °F - 35.6 °F 93% 29.90 in 10.0 mi Calm Calm - N/A   Overcast
1:13 PM 37.4 °F - 35.6 °F 93% 29.90 in 10.0 mi Calm Calm - N/A   Overcast
1:33 PM 37.4 °F 33.8 °F 37.4 °F 100% 29.90 in 10.0 mi North 4.6 mph - N/A   Overcast
1:53 PM 37.4 °F 34.9 °F 37.4 °F 100% 29.90 in 10.0 mi NNW 3.5 mph - N/A   Overcast
2:13 PM 37.4 °F 32.1 °F 37.4 °F 100% 29.91 in 10.0 mi NW 6.9 mph - N/A   Overcast
2:33 PM 37.4 °F 34.9 °F 37.4 °F 100% 29.91 in 10.0 mi NW 3.5 mph - N/A   Overcast
2:53 PM 37.4 °F - 37.4 °F 100% 29.92 in 10.0 mi Calm Calm - N/A   Overcast
3:13 PM 39.2 °F - 39.2 °F 100% 29.93 in 10.0 mi Calm Calm - N/A   Overcast
3:33 PM 37.4 °F - 37.4 °F 100% 29.93 in 10.0 mi Calm Calm - N/A   Overcast
3:53 PM 39.2 °F - 37.4 °F 93% 29.93 in 10.0 mi Calm Calm - N/A   Overcast
4:13 PM 37.4 °F - 37.4 °F 100% 29.94 in 10.0 mi Calm Calm - N/A   Overcast
4:33 PM 37.4 °F 33.8 °F 37.4 °F 100% 29.94 in 10.0 mi NW 4.6 mph - N/A   Overcast
4:53 PM 39.2 °F 34.2 °F 37.4 °F 93% 29.95 in 10.0 mi NW 6.9 mph - N/A   Overcast
5:13 PM 37.4 °F 32.8 °F 37.4 °F 100% 29.96 in 10.0 mi NNW 5.8 mph - N/A   Overcast
5:33 PM 37.4 °F 33.8 °F 37.4 °F 100% 29.97 in 10.0 mi NNW 4.6 mph - N/A   Overcast
5:53 PM 37.4 °F 32.1 °F 37.4 °F 100% 29.97 in 10.0 mi NNW 6.9 mph - N/A   Overcast
6:13 PM 37.4 °F 33.8 °F 35.6 °F 93% 29.98 in 10.0 mi NNW 4.6 mph - N/A   Overcast
6:33 PM 35.6 °F 30.7 °F 35.6 °F 100% 30.00 in 10.0 mi NNW 5.8 mph - N/A   Overcast
6:53 PM 35.6 °F 30.7 °F 35.6 °F 100% 30.01 in 10.0 mi NNW 5.8 mph - N/A   Overcast
7:13 PM 35.6 °F 30.7 °F 33.8 °F 93% 30.02 in 10.0 mi NNW 5.8 mph - N/A   Overcast
7:33 PM 33.8 °F 27.7 °F 33.8 °F 100% 30.02 in 10.0 mi NNW 6.9 mph - N/A   Overcast
7:53 PM 33.8 °F 28.6 °F 33.8 °F 100% 30.03 in 10.0 mi NNW 5.8 mph - N/A   Overcast
8:13 PM 33.8 °F 30.8 °F 33.8 °F 100% 30.04 in 10.0 mi NNW 3.5 mph - N/A   Overcast
8:33 PM 33.8 °F - 33.8 °F 100% 30.04 in 10.0 mi Calm Calm - N/A   Overcast
8:53 PM 33.8 °F - 32.0 °F 93% 30.06 in 10.0 mi Calm Calm - N/A   Overcast
9:13 PM 32.0 °F - 32.0 °F 100% 30.06 in 10.0 mi Calm Calm - N/A   Overcast
9:33 PM 30.2 °F - 30.2 °F 100% 30.06 in 10.0 mi Calm Calm - N/A   Mostly Cloudy
9:53 PM 28.4 °F - 28.4 °F 100% 30.06 in 10.0 mi Calm Calm - N/A   Mostly Cloudy
10:13 PM 28.4 °F - 28.4 °F 100% 30.07 in 10.0 mi Calm Calm - N/A   Overcast
10:33 PM 28.4 °F - 28.4 °F 100% 30.08 in 10.0 mi Calm Calm - N/A   Overcast
10:53 PM 28.4 °F - 28.4 °F 100% 30.08 in 10.0 mi Calm Calm - N/A   Overcast
11:13 PM 28.4 °F - 28.4 °F 100% 30.08 in 10.0 mi Calm Calm - N/A   Overcast
11:33 PM 28.4 °F - 28.4 °F 100% 30.09 in 10.0 mi Calm Calm - N/A   Overcast
11:53 PM 28.4 °F - 28.4 °F 100% 30.10 in 10.0 mi Calm Calm - N/A   Overcast